Location: Caltech
(34.1382°N, 118.1253°W)
Time: 12:07:19
(UTC-07:00)

Iridium 49 - Visible Passes

Search period start: 22 May 2015 00:00
Search period end: 01 June 2015 00:00
Orbit: 776 x 779 km, 86.4° (Epoch: 22 May)

Date Brightness Start Highest point End Pass type
(mag) Time Alt. Az. Time Alt. Az. Time Alt. Az.
22 May 6.7 22:42:58 44° NE 22:42:58 44° NE 22:46:57 10° NNE visible
23 May 8.4 00:23:25 14° WNW 00:23:25 14° WNW 00:25:44 10° NW visible
23 May 7.3 22:09:16 25° ENE 22:09:16 25° ENE 22:12:50 10° NNE visible
23 May 7.7 23:49:43 27° WNW 23:49:43 27° WNW 23:53:34 10° NNW visible
24 May 7.9 21:35:33 14° ENE 21:35:33 14° ENE 21:37:49 10° NE visible
24 May 6.6 23:16:01 52° WNW 23:16:01 52° WNW 23:20:35 10° N visible
25 May 6.0 22:42:17 73° NE 22:42:17 73° NE 22:47:09 10° N visible
26 May 6.6 22:08:32 39° E 22:08:32 39° E 22:13:20 10° NNE visible
26 May 8.0 23:48:59 19° W 23:49:26 19° WNW 23:53:00 10° NW visible
27 May 7.4 21:34:47 20° E 21:35:07 20° E 21:38:58 10° NE visible
27 May 7.1 23:15:14 36° W 23:15:38 36° W 23:20:24 10° NNW visible
28 May 6.1 22:41:28 65° SW 22:42:01 72° W 22:47:13 10° N visible
29 May 6.1 22:07:40 52° SE 22:08:30 59° E 22:13:38 10° N visible
29 May 8.5 23:48:06 11° W 23:49:46 13° WNW 23:51:49 10° NW visible
30 May 6.9 21:33:51 27° ESE 21:35:05 30° E 21:39:38 10° NNE visible
30 May 7.8 23:14:18 22° WSW 23:15:51 25° W 23:20:01 10° NNW visible
31 May 7.7 21:00:02 13° ESE 21:01:45 16° E 21:04:53 10° NE visible
31 May 6.8 22:40:28 35° SW 22:42:07 47° W 22:47:08 10° N visible
